Marham, United Kingdom

1:02 AM GMT on February 28, 2017 (GMT +0000)
Lakenheath RAF

Weather History for EGUL - October, 2012

Change the Weather History Date:

Saturday, October 27, 2012

  Actual Average Record
Temperature  
Mean Temperature 40 °F -  
Max Temperature 46 °F - - ()
Min Temperature 35 °F - - ()
Degree Days  
Heating Degree Days 24    
Moisture  
Dew Point 35 °F    
Average Humidity 87    
Maximum Humidity 93    
Minimum Humidity 76    
Precipitation  
Precipitation 0.27 in - - ()
Sea Level Pressure  
Sea Level Pressure 29.96 in    
Wind  
Wind Speed 13 mph ()    
Max Wind Speed 28 mph    
Max Gust Speed 34 mph    
Visibility 6.2 miles    
Events Rain    
T = Trace of Precipitation, MM = Missing Value Source: Averaged Metar Reports

Daily Weather History Graph

Daily Weather History Graph

Search for Another Location

Airport or City:

Trip Planner

Search our weather history database for the weather conditions in past years. The results will help you decide how hot, cold, wet, or windy it might be!

Date:

Astronomy

Oct. 27, 2012 Rise Set
Actual Time 7:45 AM BST 5:37 PM BST
Civil Twilight 7:09 AM BST 6:12 PM BST
Nautical Twilight 6:29 AM BST 6:52 PM BST
Astronomical Twilight 5:50 AM BST 7:31 PM BST
Moon 4:25 PM BST (10/27) 5:12 AM BST (10/27)
Length of Visible Light 11h 02m
Length of Day
9h 51m
Waxing Gibbous, 95% of the Moon is Illuminated
Oct 27
Waxing Gibbous
Oct 29
Full
Nov 7
Last Quarter
Nov 13
New
Nov 20
First Quarter

Hourly Weather History & Observations

Time (BST) Temp. Windchill Dew Point Humidity Pressure Visibility Wind Dir Wind Speed Gust Speed Precip Events Conditions
12:15 AM 37.4 °F 29.3 °F 33.8 °F 87% 29.85 in 6.2 mi North 12.7 mph - N/A   Scattered Clouds
12:28 AM 37.4 °F 30.3 °F 33.8 °F 87% 29.85 in 6.2 mi NNW 10.4 mph - N/A Rain Light Rain
12:42 AM 37.4 °F 29.8 °F 32.0 °F 81% 29.85 in 6.2 mi NNW 11.5 mph - N/A   Scattered Clouds
12:58 AM 36.5 °F 26.7 °F 33.4 °F 89% 29.87 in 6.2 mi NNW 17.3 mph 26.5 mph 0.00 in   Mostly Cloudy
12:59 AM 37.4 °F 27.8 °F 32.0 °F 81% 29.86 in 6.2 mi NNW 17.3 mph 26.5 mph N/A Rain Light Rain
1:12 AM 35.6 °F 25.2 °F 32.0 °F 87% 29.86 in 6.2 mi NNW 18.4 mph 27.6 mph N/A Rain Light Rain
1:16 AM 35.6 °F 25.9 °F 32.0 °F 87% 29.86 in 6.2 mi NNW 16.1 mph 25.3 mph N/A   Light Drizzle
1:24 AM 35.6 °F 27.1 °F 32.0 °F 87% 29.85 in 6.2 mi NNW 12.7 mph 23.0 mph N/A   Mostly Cloudy
1:25 AM 35.6 °F 27.1 °F 32.0 °F 87% 29.85 in 6.2 mi NNW 12.7 mph 23.0 mph N/A   Mostly Cloudy
1:26 AM 35.6 °F 26.2 °F 32.0 °F 87% 29.85 in 6.2 mi NNW 15.0 mph 23.0 mph N/A   Scattered Clouds
1:58 AM 35.4 °F 24.6 °F 32.7 °F 90% 29.86 in 6.2 mi NNW 19.6 mph 24.2 mph 0.00 in   Clear
2:16 AM 35.6 °F 25.2 °F 32.0 °F 87% 29.85 in 6.2 mi NNW 18.4 mph 24.2 mph N/A   Mostly Cloudy
2:28 AM 37.4 °F 27.8 °F 32.0 °F 81% 29.85 in 6.2 mi NNW 17.3 mph 25.3 mph N/A   Scattered Clouds
2:35 AM 37.4 °F 28.5 °F 32.0 °F 81% 29.85 in 6.2 mi North 15.0 mph 24.2 mph N/A Rain Light Rain
2:51 AM 37.4 °F 28.2 °F 32.0 °F 81% 29.86 in 6.2 mi North 16.1 mph 21.9 mph N/A Rain Heavy Rain
2:58 AM 36.3 °F 28.9 °F 33.1 °F 88% 29.87 in 6.2 mi NNW 10.4 mph - 0.03 in Rain Rain
3:19 AM 35.6 °F 25.9 °F 32.0 °F 87% 29.86 in 6.2 mi NNW 16.1 mph 21.9 mph N/A Rain Light Rain
3:21 AM 35.6 °F 26.2 °F 32.0 °F 87% 29.86 in 6.2 mi NNW 15.0 mph 21.9 mph N/A Rain Light Rain
3:30 AM 35.6 °F 25.2 °F 32.0 °F 87% 29.87 in 6.2 mi NNW 18.4 mph 24.2 mph N/A   Mostly Cloudy
3:34 AM 35.6 °F 24.2 °F 32.0 °F 87% 29.87 in 6.2 mi North 21.9 mph 29.9 mph N/A   Mostly Cloudy
3:37 AM 35.6 °F 25.5 °F 32.0 °F 87% 29.86 in 6.2 mi North 17.3 mph 29.9 mph N/A   Mostly Cloudy
3:48 AM 35.6 °F 26.6 °F 32.0 °F 87% 29.86 in 6.2 mi North 13.8 mph - N/A   Mostly Cloudy
3:50 AM 35.6 °F 26.6 °F 32.0 °F 87% 29.86 in 6.2 mi North 13.8 mph - N/A Rain Light Rain
3:51 AM 35.6 °F 27.1 °F 32.0 °F 87% 29.86 in 6.2 mi North 12.7 mph - N/A   Scattered Clouds
3:58 AM 35.8 °F 27.3 °F 32.7 °F 89% 29.87 in 6.2 mi North 12.7 mph - 0.02 in   Scattered Clouds
4:36 AM 35.6 °F 27.1 °F 32.0 °F 87% 29.87 in 6.2 mi WNW 12.7 mph - N/A Rain Light Rain
4:56 AM 35.6 °F 25.2 °F 32.0 °F 87% 29.89 in 6.2 mi NNW 18.4 mph 24.2 mph N/A Rain Heavy Rain
5:02 AM 35.6 °F 25.2 °F 32.0 °F 87% 29.90 in 6.2 mi NNE 18.4 mph 28.8 mph N/A Rain Rain
5:22 AM 35.6 °F 30.7 °F 32.0 °F 87% 29.89 in 6.2 mi North 5.8 mph - N/A   Light Drizzle
5:23 AM 35.6 °F 30.7 °F 32.0 °F 87% 29.88 in 6.2 mi North 5.8 mph - N/A   Mostly Cloudy
5:27 AM 35.6 °F 29.9 °F 32.0 °F 87% 29.89 in 6.2 mi NNW 6.9 mph - N/A   Mostly Cloudy
5:35 AM 35.6 °F 29.9 °F 32.0 °F 87% 29.88 in 6.2 mi NW 6.9 mph - N/A Rain Light Rain
5:36 AM 35.6 °F 29.2 °F 32.0 °F 87% 29.88 in 6.2 mi NW 8.1 mph - N/A Rain Light Rain
5:38 AM 35.6 °F 28.0 °F 32.0 °F 87% 29.89 in 6.2 mi NNW 10.4 mph - N/A Rain Light Rain
5:54 AM 35.6 °F 28.6 °F 32.0 °F 87% 29.89 in 6.2 mi WNW 9.2 mph - N/A   Scattered Clouds
5:58 AM 36.0 °F 29.6 °F 32.9 °F 89% 29.89 in 6.2 mi NW 8.1 mph - 0.01 in   Scattered Clouds
6:04 AM 35.6 °F 28.0 °F 32.0 °F 87% 29.90 in 6.2 mi NW 10.4 mph - N/A   Light Drizzle
6:20 AM 35.6 °F 28.0 °F 32.0 °F 87% 29.90 in 6.2 mi WNW 10.4 mph - N/A   Scattered Clouds
6:58 AM 35.8 °F 30.1 °F 33.4 °F 91% 29.91 in 6.2 mi NNW 6.9 mph - 0.01 in   Overcast
7:24 AM 35.6 °F 31.7 °F 33.8 °F 93% 29.92 in 6.2 mi NNW 4.6 mph - N/A Rain Light Rain
7:58 AM 36.7 °F - 34.0 °F 90% 29.94 in 6.2 mi Variable 1.2 mph - 0.00 in Rain Light Rain
8:39 AM 37.4 °F 30.8 °F 35.6 °F 93% 29.94 in 6.2 mi WNW 9.2 mph - N/A   Mostly Cloudy
8:47 AM 37.4 °F 28.9 °F 35.6 °F 93% 29.93 in 6.2 mi NW 13.8 mph 20.7 mph N/A   Light Drizzle
8:56 AM 37.4 °F 28.9 °F 35.6 °F 93% 29.95 in 6.2 mi NNW 13.8 mph 20.7 mph N/A   Scattered Clouds
8:58 AM 37.4 °F 28.9 °F 35.6 °F 93% 29.96 in 6.2 mi NNW 13.8 mph - 0.00 in   Scattered Clouds
9:04 AM 37.4 °F 30.8 °F 35.6 °F 93% 29.95 in 6.2 mi NNW 9.2 mph - N/A   Light Drizzle
9:19 AM 37.4 °F 29.3 °F 35.6 °F 93% 29.95 in 6.2 mi NW 12.7 mph - N/A   Mostly Cloudy
9:56 AM 37.4 °F 28.5 °F 35.6 °F 93% 29.95 in 6.2 mi NNW 15.0 mph - N/A Rain Light Rain
9:58 AM 37.4 °F 28.5 °F 35.6 °F 93% 29.96 in 6.2 mi NNW 15.0 mph - 0.00 in Rain Light Rain
10:13 AM 39.2 °F 30.2 °F 35.6 °F 87% 29.95 in 6.2 mi NNW 17.3 mph 23.0 mph N/A Rain Light Rain
10:18 AM 39.2 °F 29.8 °F 35.6 °F 87% 29.96 in 6.2 mi NNW 18.4 mph 24.2 mph N/A Rain Light Rain
10:23 AM 39.2 °F 30.8 °F 35.6 °F 87% 29.96 in 6.2 mi NNW 15.0 mph 24.2 mph N/A   Mostly Cloudy
10:28 AM 39.2 °F 29.8 °F 35.6 °F 87% 29.96 in 6.2 mi NNW 18.4 mph 25.3 mph N/A Rain Light Rain
10:30 AM 39.2 °F 29.8 °F 35.6 °F 87% 29.95 in 6.2 mi NNW 18.4 mph 25.3 mph N/A Rain Light Rain
10:44 AM 39.2 °F 30.8 °F 35.6 °F 87% 29.96 in 6.2 mi NNW 15.0 mph 25.3 mph N/A   Scattered Clouds
10:48 AM 39.2 °F 30.5 °F 35.6 °F 87% 29.96 in 6.2 mi NNW 16.1 mph - N/A Rain Light Rain
10:53 AM 39.2 °F 31.6 °F 35.6 °F 87% 29.96 in 6.2 mi NNW 12.7 mph - N/A Rain Light Rain
10:57 AM 39.2 °F 29.8 °F 35.6 °F 87% 29.96 in 6.2 mi NNW 18.4 mph 27.6 mph N/A Rain Light Rain
10:58 AM 39.9 °F 31.1 °F 36.3 °F 87% 29.97 in 6.2 mi NNW 17.3 mph 27.6 mph 0.01 in Rain Light Rain
10:59 AM 39.2 °F 29.8 °F 37.4 °F 93% 29.96 in 6.2 mi NNW 18.4 mph 27.6 mph N/A Rain Light Rain
11:00 AM 39.2 °F 30.5 °F 37.4 °F 93% 29.96 in 6.2 mi NNW 16.1 mph 27.6 mph N/A Rain Light Rain
11:09 AM 41.0 °F 33.5 °F 37.4 °F 87% 29.96 in 6.2 mi NNW 13.8 mph 23.0 mph N/A   Mostly Cloudy
11:24 AM 42.8 °F 34.5 °F 39.2 °F 87% 29.96 in 6.2 mi NW 18.4 mph 26.5 mph N/A   Mostly Cloudy
11:29 AM 42.8 °F 34.5 °F 39.2 °F 87% 29.96 in 6.2 mi NNW 18.4 mph 26.5 mph N/A Rain Light Rain
11:54 AM 41.0 °F 33.1 °F 37.4 °F 87% 29.99 in 5.0 mi NNE 15.0 mph 21.9 mph N/A Rain Rain
11:58 AM 41.4 °F 32.7 °F 38.3 °F 89% 30.00 in 5.6 mi NNE 18.4 mph 23.0 mph 0.03 in Rain Heavy Rain
12:04 PM 41.0 °F 34.3 °F 37.4 °F 87% 29.97 in 6.2 mi North 11.5 mph 23.0 mph N/A Rain Light Rain
12:06 PM 41.0 °F 34.7 °F 37.4 °F 87% 29.97 in 6.2 mi North 10.4 mph 23.0 mph N/A Rain Light Rain
12:12 PM 41.0 °F 35.2 °F 37.4 °F 87% 29.97 in 6.2 mi North 9.2 mph - N/A   Mostly Cloudy
12:53 PM 46.4 °F 38.3 °F 41.0 °F 81% 29.97 in 6.2 mi North 23.0 mph 29.9 mph N/A Rain Light Rain
12:58 PM 45.7 °F 36.6 °F 40.5 °F 82% 29.98 in 6.2 mi North 27.6 mph 34.5 mph 0.01 in   Light Drizzle
1:03 PM 46.4 °F 38.7 °F 39.2 °F 76% 29.97 in 6.2 mi North 20.7 mph 34.5 mph N/A   Partly Cloudy
1:17 PM 46.4 °F 39.0 °F 39.2 °F 76% 29.98 in 6.2 mi North 19.6 mph 27.6 mph N/A Rain Light Rain
1:28 PM 44.6 °F 35.1 °F 37.4 °F 76% 30.01 in 5.6 mi NNE 27.6 mph 34.5 mph N/A Rain Heavy Rain
1:44 PM 41.0 °F 35.8 °F 37.4 °F 87% 30.00 in 6.2 mi North 8.1 mph - N/A   Mostly Cloudy
1:48 PM 41.0 °F 34.7 °F 37.4 °F 87% 30.00 in 6.2 mi North 10.4 mph - N/A Rain Light Rain
1:58 PM 41.7 °F 36.1 °F 38.5 °F 88% 30.01 in 6.2 mi North 9.2 mph - 0.02 in Rain Light Rain
2:00 PM 41.0 °F 34.7 °F 39.2 °F 93% 30.00 in 6.2 mi North 10.4 mph - N/A   Scattered Clouds
2:03 PM 41.0 °F 33.9 °F 37.4 °F 87% 30.01 in 6.2 mi North 12.7 mph - N/A Rain Light Rain
2:11 PM 41.0 °F 33.5 °F 39.2 °F 93% 30.01 in 6.2 mi NNE 13.8 mph - N/A Rain Light Rain
2:13 PM 41.0 °F 33.5 °F 37.4 °F 87% 30.01 in 6.2 mi NNE 13.8 mph - N/A Rain Light Rain
2:14 PM 41.0 °F 33.5 °F 37.4 °F 87% 30.01 in 6.2 mi NNE 13.8 mph - N/A Rain Light Rain
2:19 PM 41.0 °F 33.9 °F 39.2 °F 93% 30.01 in 6.2 mi North 12.7 mph - N/A Rain Light Rain
2:28 PM 42.8 °F 36.6 °F 39.2 °F 87% 30.01 in 6.2 mi North 11.5 mph - N/A   Scattered Clouds
2:43 PM 42.8 °F 38.0 °F 39.2 °F 87% 30.02 in 6.2 mi NNE 8.1 mph - N/A Rain Light Rain
2:51 PM 41.0 °F 32.2 °F 37.4 °F 87% 30.02 in 6.2 mi NE 18.4 mph 24.2 mph N/A Rain Rain
2:58 PM 41.5 °F 33.5 °F 37.6 °F 86% 30.03 in 6.2 mi NNE 16.1 mph 24.2 mph 0.02 in Rain Light Rain
3:04 PM 41.0 °F 34.7 °F 37.4 °F 87% 30.02 in 6.2 mi North 10.4 mph 20.7 mph N/A Rain Light Rain
3:11 PM 41.0 °F 34.7 °F 37.4 °F 87% 30.02 in 6.2 mi North 10.4 mph - N/A   Overcast
3:14 PM 41.0 °F 34.7 °F 37.4 °F 87% 30.03 in 6.2 mi North 10.4 mph - N/A   Overcast
3:15 PM 41.0 °F 34.7 °F 37.4 °F 87% 30.03 in 6.2 mi North 10.4 mph - N/A   Light Drizzle
3:28 PM 41.0 °F 35.2 °F 37.4 °F 87% 30.02 in 6.2 mi North 9.2 mph - N/A Rain Light Rain
3:40 PM 41.0 °F 37.1 °F 37.4 °F 87% 30.01 in 6.2 mi NNW 5.8 mph - N/A Rain Light Rain
3:51 PM 41.0 °F 35.8 °F 37.4 °F 87% 30.02 in 6.2 mi North 8.1 mph - N/A Rain Light Rain
4:38 PM 41.0 °F 35.8 °F 37.4 °F 87% 30.04 in 6.2 mi NW 8.1 mph - N/A Rain Rain
4:46 PM 41.0 °F 33.5 °F 37.4 °F 87% 30.04 in 5.0 mi North 13.8 mph 21.9 mph N/A Rain Light Rain
4:55 PM 41.0 °F 33.5 °F 35.6 °F 81% 30.04 in 6.2 mi North 13.8 mph 24.2 mph N/A   Mostly Cloudy
4:57 PM 41.0 °F 33.9 °F 35.6 °F 81% 30.04 in 6.2 mi North 12.7 mph 24.2 mph N/A   Mostly Cloudy
4:58 PM 41.0 °F 33.9 °F 35.6 °F 81% 30.05 in 6.2 mi North 12.7 mph 24.2 mph 0.07 in   Mostly Cloudy
5:00 PM 41.0 °F 33.5 °F 35.6 °F 81% 30.04 in 6.2 mi North 13.8 mph - N/A Rain Light Rain
5:39 PM 41.0 °F 33.9 °F 35.6 °F 81% 30.05 in 6.2 mi NNW 12.7 mph - N/A   Mostly Cloudy
5:57 PM 41.0 °F 34.3 °F 35.6 °F 81% 30.06 in 6.2 mi NW 11.5 mph - N/A Rain Light Rain
5:58 PM 41.7 °F 35.2 °F 36.0 °F 80% 30.07 in 6.2 mi NW 11.5 mph - 0.03 in Rain Light Rain
6:09 PM 41.0 °F 35.8 °F 35.6 °F 81% 30.06 in 6.2 mi NW 8.1 mph - N/A   Mostly Cloudy
6:58 PM 40.8 °F 36.9 °F 35.8 °F 82% 30.09 in 6.2 mi NNW 5.8 mph - 0.01 in   Clear
7:58 PM 38.5 °F 32.7 °F 35.2 °F 88% 30.10 in 6.2 mi WNW 8.1 mph - N/A   Clear
8:52 PM 39.2 °F 32.0 °F 35.6 °F 87% 30.10 in 6.2 mi NW 11.5 mph - N/A Rain Light Rain
8:58 PM 38.5 °F 31.1 °F 35.2 °F 88% 30.11 in 6.2 mi NNW 11.5 mph - 0.00 in Rain Light Rain
9:02 PM 39.2 °F 31.2 °F 35.6 °F 87% 30.10 in 6.2 mi NW 13.8 mph - N/A   Partly Cloudy
9:58 PM 38.8 °F 31.6 °F 36.1 °F 90% 30.11 in 6.2 mi NW 11.5 mph - 0.00 in   Clear
10:58 PM 37.6 °F 31.6 °F 35.4 °F 92% 30.12 in 6.2 mi NW 8.1 mph - N/A   Clear
11:58 PM 36.5 °F 31.8 °F 34.2 °F 91% 30.11 in 6.2 mi NW 5.8 mph - N/A   Clear